Date String (YYYY-MM-DD hh:mm:ss) UTC,Instrument flags,absolute air pressure of the measurement (hPa),sample flow rate (lpm),inlet stack bypass flow (lpm),air temperature of the measurement (°C),ambient temperature measured by the external sensor (°C),aerosol sample conditioner tube jacket temperature (°C),OPC LED temperature (°C),internal box temperature (°C),relative humidity of the measurement (%),span deviation,mass concentration of particles derived from Lorenz-Mie calculation of OPC scattering (μg/m³),mass concentration of particles derived from Lorenz-Mie calculation of OPC scattering (μg/m³),mass concentration of particles derived from Lorenz-Mie calculation of OPC scattering (μg/m³)
DateTimeUTC,F1_M11,P_M11,Q1_M11,Q2_M11,T1_M11,T2_M11,T3_M11,T4_M11,T5_M11,U1_M11,ZSPAN_M11,X0_M11,X2_M11,X1_M11
2024-01-20 08:00:00,SystemResetWarning,0830.5,4.99,000.00,018.7,017.8,000.0,027.2,020.0,13.3,0002.1,0014.82,0008.34,0007.72
2024-01-20 08:01:00,SystemResetWarning,0830.4,4.99,000.00,018.7,017.8,000.0,027.2,020.0,13.3,0002.3,0014.92,0008.44,0007.82
2024-01-20 08:02:00,SystemResetWarning,0830.5,5.00,000.00,018.7,017.8,000.0,027.2,020.0,13.3,0002.2,0015.09,0008.52,0007.86
2024-01-20 08:03:00,SystemResetWarning,0830.5,5.01,000.00,018.7,017.8,000.0,027.2,020.0,13.3,0001.7,0014.83,0008.45,0007.81
2024-01-20 08:04:00,SystemResetWarning,0830.4,4.99,000.00,018.7,017.8,000.0,027.2,020.0,13.2,0001.5,0014.82,0008.41,0007.78
2024-01-20 08:05:00,SystemResetWarning,0830.4,5.02,000.00,018.7,017.8,000.0,027.2,020.0,13.1,0001.4,0014.99,0008.37,0007.74
2024-01-20 08:06:00,SystemResetWarning,0830.4,5.00,000.00,018.7,017.8,000.0,027.2,020.0,13.1,0001.1,0015.00,0008.31,0007.69
2024-01-20 08:07:00,SystemResetWarning,0830.4,5.00,000.00,018.7,017.8,000.0,027.2,020.0,13.1,0000.9,0015.05,0008.28,0007.66
2024-01-20 08:08:00,SystemResetWarning,0830.4,4.99,000.00,018.7,017.8,000.0,027.2,020.0,13.1,0001.2,0015.02,0008.27,0007.66
2024-01-20 08:09:00,SystemResetWarning,0830.5,4.99,000.00,018.7,017.8,000.0,027.2,020.0,13.2,0001.7,0014.07,0008.34,0007.74
2024-01-20 08:10:00,SystemResetWarning,0830.4,5.00,000.00,018.7,017.8,000.0,027.2,020.2,13.2,0001.8,0013.90,0008.48,0007.86
2024-01-20 08:11:00,SystemResetWarning,0830.4,5.01,000.00,018.8,018.4,000.0,027.2,020.6,13.1,0001.6,0014.76,0008.59,0007.96
2024-01-20 08:12:00,SystemResetWarning,0830.4,5.00,000.00,019.0,019.0,000.0,027.2,020.9,13.1,0000.8,0014.95,0008.71,0008.07
2024-01-20 08:13:00,SystemResetWarning,0830.4,4.98,000.00,019.0,019.0,000.0,027.2,020.6,13.0,0000.8,0014.96,0008.79,0008.17
2024-01-20 08:14:00,SystemResetWarning,0830.6,5.01,000.00,019.0,018.9,000.0,027.2,020.4,13.0,0001.4,0015.08,0008.85,0008.24
2024-01-20 08:15:00,SystemResetWarning,0830.5,5.01,000.00,019.0,018.8,000.0,027.2,020.3,13.0,0001.9,0016.34,0008.94,0008.31
2024-01-20 08:16:00,SystemResetWarning,0830.5,5.00,000.00,019.0,018.7,000.0,027.2,020.2,13.0,0001.9,0016.44,0008.98,0008.35
2024-01-20 08:17:00,SystemResetWarning,0830.4,4.99,000.00,018.9,018.5,000.0,027.2,020.1,13.0,0001.9,0016.22,0009.01,0008.37
2024-01-20 08:18:00,SystemResetWarning,0830.3,4.99,000.00,018.9,018.4,000.0,027.2,020.0,13.0,0002.3,0016.36,0008.99,0008.36
2024-01-20 08:19:00,SystemResetWarning,0830.3,5.00,000.00,018.9,018.3,000.0,027.2,020.0,13.0,0002.0,0016.57,0008.91,0008.31
2024-01-20 08:20:00,SystemResetWarning,0830.3,5.01,000.00,018.8,018.3,000.0,027.2,020.0,13.0,0001.7,0016.76,0008.84,0008.22
2024-01-20 08:21:00,SystemResetWarning,0830.3,5.00,000.00,018.8,018.2,000.0,027.2,020.0,13.1,0001.5,0016.50,0008.77,0008.15
2024-01-20 08:22:00,SystemResetWarning,0830.3,5.00,000.00,018.8,018.2,000.0,027.2,020.0,13.1,0001.1,0015.39,0008.65,0008.08
2024-01-20 08:23:00,SystemResetWarning,0830.3,5.00,000.00,018.8,018.2,000.0,027.2,020.0,13.1,0001.3,0015.52,0008.56,0007.99
2024-01-20 08:24:00,SystemResetWarning,0830.3,5.01,000.00,018.8,018.1,000.0,027.2,020.0,13.1,0001.2,0015.57,0008.52,0007.97
2024-01-20 08:25:00,SystemResetWarning,0830.3,5.00,000.00,018.8,018.1,000.0,027.2,020.0,13.1,0000.8,0016.26,0008.55,0008.01
2024-01-20 08:26:00,SystemResetWarning,0830.3,5.00,000.00,018.8,018.0,000.0,027.2,020.0,13.1,0000.7,0014.98,0008.57,0008.05
2024-01-20 08:27:00,SystemResetWarning,0830.3,4.99,000.00,018.7,018.0,000.0,027.2,020.0,13.2,0000.6,0014.73,0008.66,0008.12
2024-01-20 08:28:00,SystemResetWarning,0830.3,5.00,000.00,018.7,018.0,000.0,027.2,020.0,13.3,0000.3,0014.61,0008.71,0008.18
2024-01-20 08:29:00,SystemResetWarning,0830.2,5.00,000.00,018.7,018.0,000.0,027.2,020.0,13.3,0000.1,0014.16,0008.80,0008.24
2024-01-20 08:30:00,SystemResetWarning,0830.2,5.00,000.00,018.7,017.9,000.0,027.2,020.0,13.3,0000.4,0013.60,0008.91,0008.32
2024-01-20 08:31:00,SystemResetWarning,0830.3,5.00,000.00,018.7,017.9,000.0,027.2,020.0,13.3,0000.6,0013.42,0009.01,0008.41
2024-01-20 08:32:00,SystemResetWarning,0830.3,5.01,000.00,018.7,017.9,000.0,027.2,020.0,13.2,0000.8,0013.74,0009.09,0008.50
2024-01-20 08:33:00,SystemResetWarning,0830.3,5.01,000.00,018.7,017.9,000.0,027.2,020.0,13.2,0001.2,0014.48,0009.17,0008.55
2024-01-20 08:34:00,SystemResetWarning,0830.3,5.00,000.00,018.7,017.9,000.0,027.2,020.0,13.1,0001.7,0014.36,0009.25,0008.60
2024-01-20 08:35:00,SystemResetWarning,0830.3,5.00,000.00,018.7,017.8,000.0,027.2,020.0,13.1,0001.7,0014.26,0009.30,0008.64
2024-01-20 08:36:00,SystemResetWarning,0830.3,5.00,000.00,018.7,017.8,000.0,027.2,020.0,13.1,0001.8,0013.59,0009.34,0008.67
2024-01-20 08:37:00,SystemResetWarning,0830.3,5.00,000.00,018.7,017.8,000.0,027.2,020.0,13.1,0001.6,0014.07,0009.41,0008.71
2024-01-20 08:38:00,SystemResetWarning,0830.3,4.99,000.00,018.7,017.8,000.0,027.2,020.1,13.1,0001.7,0014.23,0009.44,0008.74
2024-01-20 08:39:00,SystemResetWarning,0830.3,5.01,000.00,018.8,018.2,000.0,027.2,020.5,13.0,0002.0,0014.26,0009.46,0008.78
2024-01-20 08:40:00,SystemResetWarning,0830.3,5.01,000.00,018.9,019.0,000.0,027.2,020.9,12.9,0001.9,0014.34,0009.50,0008.81
2024-01-20 08:41:00,SystemResetWarning,0830.3,4.98,000.00,019.0,019.1,000.0,027.2,020.7,12.9,0001.6,0014.28,0009.48,0008.79
2024-01-20 08:42:00,SystemResetWarning,0830.3,4.99,000.00,019.0,019.0,000.0,027.2,020.5,12.9,0001.6,0014.31,0009.48,0008.79
2024-01-20 08:43:00,SystemResetWarning,0830.4,5.00,000.00,019.0,018.8,000.0,027.2,020.3,12.9,0001.8,0014.32,0009.50,0008.78
2024-01-20 08:44:00,SystemResetWarning,0830.4,5.01,000.00,019.0,018.7,000.0,027.2,020.2,12.8,0001.8,0013.97,0009.56,0008.79
2024-01-20 08:45:00,SystemResetWarning,0830.4,5.00,000.00,019.0,018.6,000.0,027.2,020.2,12.8,0001.5,0014.22,0009.61,0008.82
2024-01-20 08:46:00,SystemResetWarning,0830.3,5.00,000.00,018.9,018.5,000.0,027.2,020.2,12.9,0001.5,0014.39,0009.70,0008.84
2024-01-20 08:47:00,SystemResetWarning,0830.3,5.00,000.00,018.9,018.5,000.0,027.2,020.1,12.9,0001.4,0015.27,0009.71,0008.83
2024-01-20 08:48:00,SystemResetWarning,0830.3,5.00,000.00,018.9,018.4,000.0,027.2,020.1,12.9,0001.7,0015.12,0009.66,0008.80
2024-01-20 08:49:00,SystemResetWarning,0830.2,5.00,000.00,018.9,018.3,000.0,027.2,020.0,13.0,0001.7,0015.05,0009.66,0008.77
2024-01-20 08:50:00,SystemResetWarning,0830.2,5.00,000.00,018.8,018.2,000.0,027.2,020.0,13.0,0001.7,0015.47,0009.64,0008.73
2024-01-20 08:51:00,SystemResetWarning,0830.2,5.00,000.00,018.8,018.2,000.0,027.2,020.0,13.0,0001.5,0015.85,0009.58,0008.69
2024-01-20 08:52:00,SystemResetWarning,0830.3,5.01,000.00,018.8,018.1,000.0,027.2,020.0,13.0,0001.2,0015.95,0009.55,0008.69
2024-01-20 08:53:00,SystemResetWarning,0830.2,5.01,000.00,018.8,018.1,000.0,027.2,020.0,13.0,0001.3,0016.52,0009.58,0008.72
2024-01-20 08:54:00,SystemResetWarning,0830.2,5.01,000.00,018.8,018.1,000.0,027.2,020.0,13.1,0001.1,0016.80,0009.68,0008.77
2024-01-20 08:55:00,SystemResetWarning,0830.2,4.99,000.00,018.8,018.1,000.0,027.2,020.0,13.1,0001.1,0016.94,0009.73,0008.83
2024-01-20 08:56:00,SystemResetWarning,0830.2,4.99,000.00,018.8,018.0,000.0,027.2,020.0,13.2,0000.7,0017.06,0009.76,0008.86
2024-01-20 08:57:00,SystemResetWarning,0830.2,4.99,000.00,018.8,018.0,000.0,027.2,020.0,13.1,0000.8,0017.08,0009.73,0008.87
2024-01-20 08:58:00,SystemResetWarning,0830.2,5.00,000.00,018.8,018.0,000.0,027.2,020.0,13.2,0001.3,0017.69,0009.73,0008.89
2024-01-20 08:59:00,SystemResetWarning,0830.1,5.01,000.00,018.7,017.9,000.0,027.2,020.0,13.2,0001.6,0017.55,0009.86,0008.95
